Weather History for Muskegon, MI

Change the Weather History Date:

Thursday, November 22, 2012

  Actual Average Record
Temperature  
Mean Temperature 56 °F 38 °F  
Max Temperature 63 °F 44 °F 67 °F (1934)
Min Temperature 49 °F 32 °F 14 °F (1971)
Degree Days  
Heating Degree Days 9 27  
Month to date heating degree days 492 513  
Since 1 July heating degree days 1074 1136  
Cooling Degree Days 0 0  
Month to date cooling degree days 0 0  
Year to date cooling degree days 925 566  
Growing Degree Days 6 (Base 50)    
Moisture  
Dew Point 45 °F    
Average Humidity 63    
Maximum Humidity 86    
Minimum Humidity 39    
Precipitation  
Precipitation 0.02 in 0.12 in 1.20 in (1909)
Month to date precipitation 0.50 2.51  
Year to date precipitation 28.48 30.09  
Snow  
Snow 0.00 in 0.30 in 6.00 in (1909)
Month to date snowfall 0.2 3.1  
Since 1 July snowfall 0.2 3.3  
Since 1 September snowfall 0.2 3.3  
Snow Depth 0.00 in    
Sea Level Pressure  
Sea Level Pressure 29.92 in    
Wind  
Wind Speed 19 mph (South)    
Max Wind Speed 30 mph    
Max Gust Speed 45 mph    
Visibility 6 miles    
Events Rain    
T = Trace of Precipitation, MM = Missing Value Source: NWS Daily Summary

Daily Weather History Graph

Daily Weather History Graph

Search for Another Location

Airport:

Trip Planner

Search our weather history database for the weather conditions in past years. The results will help you decide how hot, cold, wet, or windy it might be!

Date:

Astronomy

Nov. 22, 2012 Rise Set
Actual Time 7:47 AM EST 5:14 PM EST
Civil Twilight 7:15 AM EST 5:46 PM EST
Nautical Twilight 6:40 AM EST 6:21 PM EST
Astronomical Twilight 6:06 AM EST 6:55 PM EST
Moon 2:07 PM EST (11/22) 1:58 AM EST (11/22)
Length of Visible Light 10h 30m
Length of Day
9h 27m
Waxing Gibbous, 71% of the Moon is Illuminated
Nov 22
Waxing Gibbous
Nov 28
Full
Dec 6
Last Quarter
Dec 13
New
Dec 20
First Quarter

Hourly Weather History & Observations

Time (EST) Temp. Dew Point Humidity Pressure Visibility Wind Dir Wind Speed Gust Speed Precip Events Conditions
12:55 AM 52.0 °F 46.0 °F 80% 30.07 in 4.0 mi SSW 18.4 mph 31.1 mph N/A   Haze
1:55 AM 51.1 °F 46.0 °F 83% 30.07 in 4.0 mi SSW 16.1 mph 27.6 mph N/A   Haze
2:55 AM 51.1 °F 46.0 °F 83% 30.07 in 3.0 mi SSW 16.1 mph 25.3 mph N/A   Haze
3:55 AM 50.0 °F 46.0 °F 86% 30.06 in 3.0 mi SSW 15.0 mph - N/A   Clear
4:55 AM 50.0 °F 46.0 °F 86% 30.05 in 3.0 mi SSW 15.0 mph - N/A   Clear
5:55 AM 50.0 °F 45.0 °F 83% 30.04 in 3.0 mi SSW 16.1 mph - N/A   Haze
6:55 AM 50.0 °F 45.0 °F 83% 30.02 in 3.0 mi South 13.8 mph - N/A   Haze
7:45 AM 50.0 °F 44.6 °F 82% 30.01 in 2.5 mi South 15.0 mph 20.7 mph N/A   Haze
7:55 AM 50.0 °F 45.0 °F 83% 30.01 in 2.5 mi South 16.1 mph 20.7 mph N/A   Haze
8:45 AM 50.0 °F 44.6 °F 82% 29.99 in 3.0 mi South 18.4 mph 27.6 mph N/A   Haze
8:55 AM 50.0 °F 45.0 °F 83% 30.00 in 3.0 mi South 17.3 mph 23.0 mph N/A   Haze
9:55 AM 52.0 °F 46.0 °F 80% 29.98 in 4.0 mi South 19.6 mph 27.6 mph N/A   Haze
10:55 AM 53.1 °F 45.0 °F 74% 29.97 in 5.0 mi South 20.7 mph 29.9 mph N/A   Haze
11:55 AM 55.0 °F 45.0 °F 69% 29.94 in 6.0 mi South 21.9 mph 34.5 mph N/A   Haze
12:55 PM 55.9 °F 44.1 °F 64% 29.91 in 8.0 mi South 25.3 mph 36.8 mph N/A   Clear
1:55 PM 57.0 °F 44.1 °F 62% 29.86 in 10.0 mi South 25.3 mph 38.0 mph N/A   Clear
2:55 PM 60.1 °F 42.1 °F 51% 29.83 in 10.0 mi South 23.0 mph 33.4 mph N/A   Mostly Cloudy
3:55 PM 62.1 °F 37.9 °F 41% 29.80 in 10.0 mi South 17.3 mph 29.9 mph N/A   Overcast
4:55 PM 62.1 °F 39.0 °F 43% 29.78 in 10.0 mi South 21.9 mph 27.6 mph N/A   Overcast
5:55 PM 61.0 °F 41.0 °F 48% 29.79 in 10.0 mi South 25.3 mph 35.7 mph N/A   Overcast
6:55 PM 59.0 °F 42.1 °F 53% 29.79 in 10.0 mi South 19.6 mph 28.8 mph N/A   Overcast
7:27 PM 53.6 °F 48.2 °F 82% 29.81 in 4.0 mi SSW 24.2 mph 31.1 mph 0.02 in Rain Rain
7:55 PM 53.1 °F 46.9 °F 80% 29.81 in 9.0 mi SSW 17.3 mph 28.8 mph 0.02 in Rain Light Rain
8:55 PM 54.0 °F 46.0 °F 75% 29.77 in 10.0 mi South 19.6 mph 29.9 mph 0.00 in   Overcast
9:55 PM 54.0 °F 46.0 °F 75% 29.75 in 10.0 mi South 21.9 mph 29.9 mph N/A   Overcast
10:55 PM 54.0 °F 46.0 °F 75% 29.73 in 10.0 mi SSW 20.7 mph 31.1 mph N/A   Overcast
11:55 PM 53.1 °F 46.0 °F 77% 29.70 in 10.0 mi SSW 23.0 mph 33.4 mph N/A   Overcast